Time,TemperatureF,DewpointF,PressureIn,WindDirection,WindDirectionDegrees,WindSpeedMPH,WindSpeedGustMPH,Humidity,HourlyPrecipIn,Conditions,Clouds,dailyrainin,SoftwareType,DateUTC
2013-10-23 00:02:00,34.7,26.6,29.95,WNW,288,0.0,0.0,72,0.00,,,0.00,Wunderground v.1.15,2013-10-23 05:02:00,
2013-10-23 00:07:00,34.3,26.2,29.95,WNW,288,0.0,0.0,72,0.00,,,0.00,Wunderground v.1.15,2013-10-23 05:07:00,
2013-10-23 00:13:00,34.0,26.9,29.95,WNW,288,0.0,0.0,75,0.00,,,0.00,Wunderground v.1.15,2013-10-23 05:13:00,
2013-10-23 00:18:00,33.8,26.7,29.95,WNW,284,0.0,0.0,75,0.00,,,0.00,Wunderground v.1.15,2013-10-23 05:18:00,
2013-10-23 00:23:00,33.7,26.6,29.95,West,281,0.0,0.0,75,0.00,,,0.00,Wunderground v.1.15,2013-10-23 05:23:00,
2013-10-23 00:28:00,33.4,26.3,29.95,West,281,0.0,0.0,75,0.00,,,0.00,Wunderground v.1.15,2013-10-23 05:28:00,
2013-10-23 00:34:00,33.1,26.4,29.95,WNW,301,0.0,0.0,76,0.00,,,0.00,Wunderground v.1.15,2013-10-23 05:34:00,
2013-10-23 00:40:00,32.9,26.2,29.95,WNW,301,0.0,0.0,76,0.00,,,0.00,Wunderground v.1.15,2013-10-23 05:40:00,
2013-10-23 00:46:00,32.7,26.0,29.95,WNW,301,0.0,0.0,76,0.00,,,0.00,Wunderground v.1.15,2013-10-23 05:46:00,
2013-10-23 00:52:00,32.5,26.1,29.95,WNW,301,0.0,0.0,77,0.00,,,0.00,Wunderground v.1.15,2013-10-23 05:52:00,
2013-10-23 00:57:00,32.4,26.0,29.95,WNW,301,0.0,0.0,77,0.00,,,0.00,Wunderground v.1.15,2013-10-23 05:57:00,
2013-10-23 01:02:00,32.2,25.8,29.95,WNW,301,0.0,0.0,77,0.00,,,0.00,Wunderground v.1.15,2013-10-23 06:02:00,
2013-10-23 01:07:00,32.1,25.7,29.95,WNW,301,0.0,0.0,77,0.00,,,0.00,Wunderground v.1.15,2013-10-23 06:07:00,
2013-10-23 01:13:00,31.8,25.4,29.95,West,264,0.0,0.0,77,0.00,,,0.00,Wunderground v.1.15,2013-10-23 06:13:00,
2013-10-23 01:19:00,31.6,25.5,29.95,NW,322,0.0,0.0,78,0.00,,,0.00,Wunderground v.1.15,2013-10-23 06:19:00,
2013-10-23 01:24:00,31.5,25.4,29.95,NW,322,0.0,0.0,78,0.00,,,0.00,Wunderground v.1.15,2013-10-23 06:24:00,
2013-10-23 01:30:00,31.3,25.2,29.95,NW,322,0.0,0.0,78,0.00,,,0.00,Wunderground v.1.15,2013-10-23 06:30:00,
2013-10-23 01:35:00,31.2,25.4,29.95,NW,322,0.0,0.0,79,0.00,,,0.00,Wunderground v.1.15,2013-10-23 06:35:00,
2013-10-23 01:41:00,31.0,25.2,29.95,NW,308,0.0,0.0,79,0.00,,,0.00,Wunderground v.1.15,2013-10-23 06:41:00,
2013-10-23 01:46:00,30.9,25.5,29.95,WNW,301,0.0,0.0,80,0.00,,,0.00,Wunderground v.1.15,2013-10-23 06:46:00,
2013-10-23 01:52:00,30.7,25.3,29.95,WNW,294,0.0,0.0,80,0.00,,,0.00,Wunderground v.1.15,2013-10-23 06:52:00,
2013-10-23 01:57:00,30.7,25.6,29.95,WNW,295,0.0,0.0,81,0.00,,,0.00,Wunderground v.1.15,2013-10-23 06:57:00,
2013-10-23 02:03:00,30.7,25.6,29.95,WNW,285,0.0,0.0,81,0.00,,,0.00,Wunderground v.1.15,2013-10-23 07:03:00,
2013-10-23 02:09:00,30.7,25.6,29.95,WNW,287,0.0,0.0,81,0.00,,,0.00,Wunderground v.1.15,2013-10-23 07:09:00,
2013-10-23 02:14:00,30.7,25.6,29.95,WNW,287,0.0,0.0,81,0.00,,,0.00,Wunderground v.1.15,2013-10-23 07:14:00,
2013-10-23 02:20:00,30.7,25.6,29.95,WNW,287,0.0,0.0,81,0.00,,,0.00,Wunderground v.1.15,2013-10-23 07:20:00,
2013-10-23 02:26:00,30.6,25.5,29.95,WNW,287,0.0,0.0,81,0.00,,,0.00,Wunderground v.1.15,2013-10-23 07:26:00,
2013-10-23 02:31:00,30.6,25.5,29.95,WNW,287,0.0,0.0,81,0.00,,,0.00,Wunderground v.1.15,2013-10-23 07:31:00,
2013-10-23 02:37:00,30.4,25.3,29.95,WNW,287,0.0,0.0,81,0.00,,,0.00,Wunderground v.1.15,2013-10-23 07:37:00,
2013-10-23 02:43:00,30.3,25.2,29.95,WNW,285,0.0,0.0,81,0.00,,,0.00,Wunderground v.1.15,2013-10-23 07:43:00,
2013-10-23 02:48:00,30.3,25.2,29.95,WNW,285,0.0,0.0,81,0.00,,,0.00,Wunderground v.1.15,2013-10-23 07:48:00,
2013-10-23 02:53:00,30.3,25.2,29.95,WNW,285,0.0,0.0,81,0.00,,,0.00,Wunderground v.1.15,2013-10-23 07:53:00,
2013-10-23 02:58:00,30.1,25.0,29.95,WNW,285,0.0,0.0,81,0.00,,,0.00,Wunderground v.1.15,2013-10-23 07:58:00,
2013-10-23 03:03:00,30.0,24.9,29.95,WNW,285,0.0,0.0,81,0.00,,,0.00,Wunderground v.1.15,2013-10-23 08:03:00,
2013-10-23 03:09:00,30.0,24.9,29.95,WNW,285,0.0,0.0,81,0.00,,,0.00,Wunderground v.1.15,2013-10-23 08:09:00,
2013-10-23 03:14:00,29.8,24.7,29.94,WNW,285,0.0,0.0,81,0.00,,,0.00,Wunderground v.1.15,2013-10-23 08:14:00,
2013-10-23 03:20:00,29.8,24.7,29.94,WNW,288,0.0,0.0,81,0.00,,,0.00,Wunderground v.1.15,2013-10-23 08:20:00,
2013-10-23 03:26:00,29.7,24.6,29.94,WNW,288,0.0,0.0,81,0.00,,,0.00,Wunderground v.1.15,2013-10-23 08:26:00,
2013-10-23 03:31:00,29.7,24.9,29.94,WNW,289,0.0,0.0,82,0.00,,,0.00,Wunderground v.1.15,2013-10-23 08:31:00,
2013-10-23 03:37:00,29.5,24.7,29.94,WNW,289,0.0,0.0,82,0.00,,,0.00,Wunderground v.1.15,2013-10-23 08:37:00,
2013-10-23 03:43:00,29.5,24.4,29.94,WNW,289,0.0,0.0,81,0.00,,,0.00,Wunderground v.1.15,2013-10-23 08:43:00,
2013-10-23 03:48:00,29.4,24.3,29.94,WNW,289,0.0,0.0,81,0.00,,,0.00,Wunderground v.1.15,2013-10-23 08:48:00,
2013-10-23 03:54:00,29.4,24.3,29.94,WNW,289,0.0,0.0,81,0.00,,,0.00,Wunderground v.1.15,2013-10-23 08:54:00,
2013-10-23 04:00:00,29.3,24.2,29.94,WNW,289,0.0,0.0,81,0.00,,,0.00,Wunderground v.1.15,2013-10-23 09:00:00,
2013-10-23 04:05:00,29.1,24.0,29.94,WNW,289,0.0,0.0,81,0.00,,,0.00,Wunderground v.1.15,2013-10-23 09:05:00,
2013-10-23 04:11:00,29.0,23.9,29.94,WNW,289,0.0,0.0,81,0.00,,,0.00,Wunderground v.1.15,2013-10-23 09:11:00,
2013-10-23 04:16:00,28.8,23.7,29.95,WNW,289,0.0,0.0,81,0.00,,,0.00,Wunderground v.1.15,2013-10-23 09:16:00,
2013-10-23 04:21:00,28.7,23.6,29.95,WNW,289,0.0,0.0,81,0.00,,,0.00,Wunderground v.1.15,2013-10-23 09:21:00,
2013-10-23 04:27:00,28.7,23.9,29.95,WNW,289,0.0,0.0,82,0.00,,,0.00,Wunderground v.1.15,2013-10-23 09:27:00,
2013-10-23 04:32:00,28.5,23.4,29.95,WNW,289,0.0,0.0,81,0.00,,,0.00,Wunderground v.1.15,2013-10-23 09:32:00,
2013-10-23 04:38:00,28.4,23.6,29.95,WNW,289,0.0,0.0,82,0.00,,,0.00,Wunderground v.1.15,2013-10-23 09:38:00,
2013-10-23 04:43:00,28.2,23.4,29.95,WNW,289,0.0,0.0,82,0.00,,,0.00,Wunderground v.1.15,2013-10-23 09:43:00,
2013-10-23 04:48:00,28.2,23.4,29.95,WNW,289,0.0,0.0,82,0.00,,,0.00,Wunderground v.1.15,2013-10-23 09:48:00,
2013-10-23 04:53:00,28.1,23.3,29.95,WNW,289,0.0,0.0,82,0.00,,,0.00,Wunderground v.1.15,2013-10-23 09:53:00,
2013-10-23 04:58:00,27.9,23.1,29.96,WNW,289,0.0,0.0,82,0.00,,,0.00,Wunderground v.1.15,2013-10-23 09:58:00,
2013-10-23 05:03:00,27.9,23.1,29.96,WNW,289,0.0,0.0,82,0.00,,,0.00,Wunderground v.1.15,2013-10-23 10:03:00,
2013-10-23 05:08:00,27.8,23.0,29.96,WNW,289,0.0,0.0,82,0.00,,,0.00,Wunderground v.1.15,2013-10-23 10:08:00,
2013-10-23 05:14:00,27.6,23.1,29.96,WNW,289,0.0,0.0,83,0.00,,,0.00,Wunderground v.1.15,2013-10-23 10:14:00,
2013-10-23 05:19:00,27.6,23.1,29.96,WNW,289,0.0,0.0,83,0.00,,,0.00,Wunderground v.1.15,2013-10-23 10:19:00,
2013-10-23 05:24:00,27.5,23.0,29.96,WNW,289,0.0,0.0,83,0.00,,,0.00,Wunderground v.1.15,2013-10-23 10:24:00,
2013-10-23 05:29:00,27.5,23.0,29.96,WNW,289,0.0,0.0,83,0.00,,,0.00,Wunderground v.1.15,2013-10-23 10:29:00,
2013-10-23 05:34:00,27.5,23.3,29.96,WNW,289,0.0,0.0,84,0.00,,,0.00,Wunderground v.1.15,2013-10-23 10:34:00,
2013-10-23 05:39:00,27.3,23.1,29.96,WNW,289,0.0,0.0,84,0.00,,,0.00,Wunderground v.1.15,2013-10-23 10:39:00,
2013-10-23 05:45:00,27.3,23.1,29.97,WNW,291,0.0,0.0,84,0.00,,,0.00,Wunderground v.1.15,2013-10-23 10:45:00,
2013-10-23 05:50:00,27.3,23.1,29.97,WNW,291,0.0,0.0,84,0.00,,,0.00,Wunderground v.1.15,2013-10-23 10:50:00,
2013-10-23 05:55:00,27.3,23.1,29.97,WNW,291,0.0,0.0,84,0.00,,,0.00,Wunderground v.1.15,2013-10-23 10:55:00,
2013-10-23 06:00:00,27.2,23.0,29.97,WNW,291,0.0,0.0,84,0.00,,,0.00,Wunderground v.1.15,2013-10-23 11:00:00,
2013-10-23 06:06:00,27.2,23.3,29.97,WNW,291,0.0,0.0,85,0.00,,,0.00,Wunderground v.1.15,2013-10-23 11:06:00,
2013-10-23 06:11:00,27.2,23.3,29.97,WNW,292,0.0,0.0,85,0.00,,,0.00,Wunderground v.1.15,2013-10-23 11:11:00,
2013-10-23 06:16:00,27.0,23.1,29.97,WNW,292,0.0,0.0,85,0.00,,,0.00,Wunderground v.1.15,2013-10-23 11:16:00,
2013-10-23 06:22:00,27.0,23.1,29.97,WNW,292,0.0,0.0,85,0.00,,,0.00,Wunderground v.1.15,2013-10-23 11:22:00,
2013-10-23 06:27:00,27.0,23.1,29.97,WNW,292,0.0,0.0,85,0.00,,,0.00,Wunderground v.1.15,2013-10-23 11:27:00,
2013-10-23 06:32:00,27.0,23.1,29.98,WNW,292,0.0,0.0,85,0.00,,,0.00,Wunderground v.1.15,2013-10-23 11:32:00,
2013-10-23 06:37:00,26.9,23.0,29.98,WNW,292,0.0,0.0,85,0.00,,,0.00,Wunderground v.1.15,2013-10-23 11:37:00,
2013-10-23 06:42:00,26.9,23.0,29.98,WNW,292,0.0,0.0,85,0.00,,,0.00,Wunderground v.1.15,2013-10-23 11:42:00,
2013-10-23 06:47:00,26.7,22.8,29.98,WNW,292,0.0,0.0,85,0.00,,,0.00,Wunderground v.1.15,2013-10-23 11:47:00,
2013-10-23 06:52:00,26.7,22.8,29.98,WNW,292,0.0,0.0,85,0.00,,,0.00,Wunderground v.1.15,2013-10-23 11:52:00,
2013-10-23 06:57:00,26.7,22.8,29.98,WNW,292,0.0,0.0,85,0.00,,,0.00,Wunderground v.1.15,2013-10-23 11:57:00,
2013-10-23 07:02:00,26.7,22.8,29.98,WNW,292,0.0,0.0,85,0.00,,,0.00,Wunderground v.1.15,2013-10-23 12:02:00,
2013-10-23 07:07:00,26.7,23.1,29.98,WNW,292,0.0,0.0,86,0.00,,,0.00,Wunderground v.1.15,2013-10-23 12:07:00,
2013-10-23 07:13:00,26.7,23.1,29.98,WNW,292,0.0,0.0,86,0.00,,,0.00,Wunderground v.1.15,2013-10-23 12:13:00,
2013-10-23 07:19:00,26.7,23.1,29.98,WNW,292,0.0,0.0,86,0.00,,,0.00,Wunderground v.1.15,2013-10-23 12:19:00,
2013-10-23 07:24:00,26.7,23.1,29.98,WNW,292,0.0,0.0,86,0.00,,,0.00,Wunderground v.1.15,2013-10-23 12:24:00,
2013-10-23 07:30:00,26.7,23.1,29.99,WNW,292,0.0,0.0,86,0.00,,,0.00,Wunderground v.1.15,2013-10-23 12:30:00,
2013-10-23 07:35:00,26.7,23.1,29.99,WNW,292,0.0,0.0,86,0.00,,,0.00,Wunderground v.1.15,2013-10-23 12:35:00,
2013-10-23 07:40:00,26.7,23.1,29.99,WNW,292,0.0,0.0,86,0.00,,,0.00,Wunderground v.1.15,2013-10-23 12:40:00,
2013-10-23 07:46:00,26.7,23.1,29.99,WNW,292,0.0,0.0,86,0.00,,,0.00,Wunderground v.1.15,2013-10-23 12:46:00,
2013-10-23 07:52:00,26.7,23.1,29.99,WNW,292,0.0,0.0,86,0.00,,,0.00,Wunderground v.1.15,2013-10-23 12:52:00,
2013-10-23 07:57:00,26.7,23.1,29.99,WNW,292,0.0,0.0,86,0.00,,,0.00,Wunderground v.1.15,2013-10-23 12:57:00,
2013-10-23 08:03:00,26.7,23.1,29.99,WNW,292,0.0,0.0,86,0.00,,,0.00,Wunderground v.1.15,2013-10-23 13:03:00,
2013-10-23 08:09:00,26.7,23.1,29.99,WNW,292,0.0,0.0,86,0.00,,,0.00,Wunderground v.1.15,2013-10-23 13:09:00,
2013-10-23 08:15:00,26.9,23.5,30.00,WNW,292,0.0,0.0,87,0.00,,,0.00,Wunderground v.1.15,2013-10-23 13:15:00,
2013-10-23 08:20:00,26.9,23.5,30.00,WNW,292,0.0,0.0,87,0.00,,,0.00,Wunderground v.1.15,2013-10-23 13:20:00,
2013-10-23 08:25:00,27.0,23.6,30.00,WNW,292,0.0,0.0,87,0.00,,,0.00,Wunderground v.1.15,2013-10-23 13:25:00,
2013-10-23 08:30:00,27.3,24.2,30.00,WNW,292,0.0,0.0,88,0.00,,,0.00,Wunderground v.1.15,2013-10-23 13:30:00,
2013-10-23 08:36:00,27.9,25.1,30.00,WSW,251,0.0,0.0,89,0.00,,,0.00,Wunderground v.1.15,2013-10-23 13:36:00,
2013-10-23 08:41:00,28.5,25.7,30.00,WSW,258,0.0,0.0,89,0.00,,,0.00,Wunderground v.1.15,2013-10-23 13:41:00,
2013-10-23 08:46:00,29.0,26.2,30.00,West,268,0.0,0.0,89,0.00,,,0.00,Wunderground v.1.15,2013-10-23 13:46:00,
2013-10-23 08:52:00,29.4,26.6,30.00,West,277,0.0,0.0,89,0.00,,,0.00,Wunderground v.1.15,2013-10-23 13:52:00,
2013-10-23 08:57:00,29.8,27.0,30.00,West,277,0.0,0.0,89,0.00,,,0.00,Wunderground v.1.15,2013-10-23 13:57:00,
2013-10-23 09:02:00,30.1,27.3,30.00,West,272,0.0,0.0,89,0.00,,,0.00,Wunderground v.1.15,2013-10-23 14:02:00,
2013-10-23 09:08:00,30.6,27.7,30.00,WNW,291,0.0,0.0,89,0.00,,,0.00,Wunderground v.1.15,2013-10-23 14:08:00,
2013-10-23 09:13:00,31.0,28.1,30.00,WNW,287,0.0,0.0,89,0.00,,,0.00,Wunderground v.1.15,2013-10-23 14:13:00,
2013-10-23 09:18:00,31.9,29.0,30.00,WNW,287,0.0,0.0,89,0.00,,,0.00,Wunderground v.1.15,2013-10-23 14:18:00,
2013-10-23 09:23:00,32.8,29.6,30.00,SSW,210,0.0,0.0,88,0.00,,,0.00,Wunderground v.1.15,2013-10-23 14:23:00,
2013-10-23 09:29:00,33.1,29.1,30.00,WNW,282,0.0,1.0,85,0.00,,,0.00,Wunderground v.1.15,2013-10-23 14:29:00,
2013-10-23 09:35:00,33.5,29.2,30.00,WNW,291,0.0,0.0,84,0.00,,,0.00,Wunderground v.1.15,2013-10-23 14:35:00,
2013-10-23 09:40:00,34.1,29.5,30.00,WNW,298,0.0,0.0,83,0.00,,,0.00,Wunderground v.1.15,2013-10-23 14:40:00,
2013-10-23 09:46:00,34.6,29.7,30.00,WNW,291,0.0,0.0,82,0.00,,,0.00,Wunderground v.1.15,2013-10-23 14:46:00,
2013-10-23 09:52:00,34.4,28.9,30.00,WNW,292,0.0,0.0,80,0.00,,,0.00,Wunderground v.1.15,2013-10-23 14:52:00,
2013-10-23 09:57:00,34.6,28.8,30.00,West,265,0.0,0.0,79,0.00,,,0.00,Wunderground v.1.15,2013-10-23 14:57:00,
2013-10-23 10:02:00,34.9,28.7,30.00,NW,308,0.0,0.0,78,0.00,,,0.00,Wunderground v.1.15,2013-10-23 15:02:00,
2013-10-23 10:07:00,35.2,28.7,30.00,NW,315,0.0,0.0,77,0.00,,,0.00,Wunderground v.1.15,2013-10-23 15:07:00,
2013-10-23 10:13:00,35.6,28.5,30.00,West,270,0.0,2.0,75,0.00,,,0.00,Wunderground v.1.15,2013-10-23 15:13:00,
2013-10-23 10:19:00,36.0,28.8,30.00,WNW,288,0.0,2.0,75,0.00,,,0.00,Wunderground v.1.15,2013-10-23 15:19:00,
2013-10-23 10:24:00,36.2,28.4,30.00,West,277,0.0,0.0,73,0.00,,,0.00,Wunderground v.1.15,2013-10-23 15:24:00,
2013-10-23 10:29:00,36.5,28.7,30.00,WNW,296,0.0,0.0,73,0.00,,,0.00,Wunderground v.1.15,2013-10-23 15:29:00,
2013-10-23 10:35:00,37.9,30.4,30.00,WSW,243,0.0,0.0,74,0.00,,,0.00,Wunderground v.1.15,2013-10-23 15:35:00,
2013-10-23 10:40:00,37.6,28.0,30.00,WNW,288,0.0,0.0,68,0.00,,,0.00,Wunderground v.1.15,2013-10-23 15:40:00,
2013-10-23 10:45:00,38.2,28.6,30.00,West,268,0.0,0.0,68,0.00,,,0.00,Wunderground v.1.15,2013-10-23 15:45:00,
2013-10-23 10:50:00,39.9,29.8,30.00,WNW,288,0.0,0.0,67,0.00,,,0.00,Wunderground v.1.15,2013-10-23 15:50:00,
2013-10-23 10:55:00,39.3,28.9,30.00,WSW,246,0.0,2.0,66,0.00,,,0.00,Wunderground v.1.15,2013-10-23 15:55:00,
2013-10-23 11:01:00,39.8,27.8,29.99,WNW,299,1.0,4.0,62,0.00,,,0.00,Wunderground v.1.15,2013-10-23 16:01:00,
2013-10-23 11:07:00,39.6,26.4,29.99,WSW,251,1.0,4.0,59,0.00,,,0.00,Wunderground v.1.15,2013-10-23 16:07:00,
2013-10-23 11:12:00,39.2,26.5,30.00,West,281,1.0,1.0,60,0.00,,,0.00,Wunderground v.1.15,2013-10-23 16:12:00,
2013-10-23 11:18:00,39.9,27.1,30.00,West,270,1.0,1.0,60,0.00,,,0.00,Wunderground v.1.15,2013-10-23 16:18:00,
2013-10-23 11:23:00,39.8,27.4,30.00,NW,309,1.0,6.0,61,0.00,,,0.00,Wunderground v.1.15,2013-10-23 16:23:00,
2013-10-23 11:29:00,39.5,25.1,30.00,NW,306,1.0,10.0,56,0.00,,,0.00,Wunderground v.1.15,2013-10-23 16:29:00,
2013-10-23 11:34:00,39.8,24.9,30.00,WNW,285,2.0,3.0,55,0.00,,,0.00,Wunderground v.1.15,2013-10-23 16:34:00,
2013-10-23 11:39:00,39.9,26.3,30.00,NW,325,1.0,5.0,58,0.00,,,0.00,Wunderground v.1.15,2013-10-23 16:39:00,
2013-10-23 11:45:00,40.1,26.5,29.99,WNW,287,1.0,5.0,58,0.00,,,0.00,Wunderground v.1.15,2013-10-23 16:45:00,
2013-10-23 11:50:00,40.1,26.1,29.99,North,352,1.0,1.0,57,0.00,,,0.00,Wunderground v.1.15,2013-10-23 16:50:00,
2013-10-23 11:56:00,40.1,24.8,29.99,WSW,257,1.0,1.0,54,0.00,,,0.00,Wunderground v.1.15,2013-10-23 16:56:00,
2013-10-23 12:01:00,40.3,24.1,29.99,WNW,295,1.0,1.0,52,0.00,,,0.00,Wunderground v.1.15,2013-10-23 17:01:00,
2013-10-23 12:07:00,41.3,25.0,29.99,West,267,2.0,2.0,52,0.00,,,0.00,Wunderground v.1.15,2013-10-23 17:07:00,
2013-10-23 12:12:00,41.2,23.9,29.99,West,267,1.0,2.0,50,0.00,,,0.00,Wunderground v.1.15,2013-10-23 17:12:00,
2013-10-23 12:17:00,42.1,25.3,29.99,NW,304,0.0,2.0,51,0.00,,,0.00,Wunderground v.1.15,2013-10-23 17:17:00,
2013-10-23 12:23:00,42.3,23.5,29.99,WNW,288,0.0,5.0,47,0.00,,,0.00,Wunderground v.1.15,2013-10-23 17:23:00,
2013-10-23 12:28:00,42.2,23.4,29.99,WSW,254,1.0,5.0,47,0.00,,,0.00,Wunderground v.1.15,2013-10-23 17:28:00,
2013-10-23 12:34:00,42.2,23.4,29.99,NW,313,0.0,1.0,47,0.00,,,0.00,Wunderground v.1.15,2013-10-23 17:34:00,
2013-10-23 12:39:00,42.8,23.9,29.99,WNW,287,0.0,1.0,47,0.00,,,0.00,Wunderground v.1.15,2013-10-23 17:39:00,
2013-10-23 12:44:00,42.6,24.8,29.98,NW,305,0.0,0.0,49,0.00,,,0.00,Wunderground v.1.15,2013-10-23 17:44:00,
2013-10-23 12:50:00,42.8,23.9,29.98,WSW,239,0.0,0.0,47,0.00,,,0.00,Wunderground v.1.15,2013-10-23 17:50:00,
2013-10-23 12:55:00,42.9,24.0,29.98,North,0,0.0,0.0,47,0.00,,,0.00,Wunderground v.1.15,2013-10-23 17:55:00,
2013-10-23 13:02:00,43.3,25.4,29.97,SW,236,0.0,0.0,49,0.00,,,0.00,Wunderground v.1.15,2013-10-23 18:02:00,
2013-10-23 13:07:00,43.6,25.7,29.97,West,261,0.0,0.0,49,0.00,,,0.00,Wunderground v.1.15,2013-10-23 18:07:00,
2013-10-23 13:12:00,43.6,25.7,29.97,NW,308,0.0,0.0,49,0.00,,,0.00,Wunderground v.1.15,2013-10-23 18:12:00,
2013-10-23 13:18:00,42.5,24.7,29.97,WNW,287,0.0,1.0,49,0.00,,,0.00,Wunderground v.1.15,2013-10-23 18:18:00,
2013-10-23 13:23:00,42.5,24.7,29.97,WSW,237,0.0,0.0,49,0.00,,,0.00,Wunderground v.1.15,2013-10-23 18:23:00,
2013-10-23 13:28:00,42.6,24.8,29.97,SW,229,0.0,0.0,49,0.00,,,0.00,Wunderground v.1.15,2013-10-23 18:28:00,
2013-10-23 13:34:00,42.6,24.8,29.97,WSW,241,0.0,0.0,49,0.00,,,0.00,Wunderground v.1.15,2013-10-23 18:34:00,
2013-10-23 13:41:00,42.2,24.4,29.97,WNW,291,0.0,0.0,49,0.00,,,0.00,Wunderground v.1.15,2013-10-23 18:41:00,
2013-10-23 13:47:00,42.1,24.3,29.97,WNW,289,0.0,0.0,49,0.00,,,0.00,Wunderground v.1.15,2013-10-23 18:47:00,
2013-10-23 13:52:00,42.1,24.3,29.97,WNW,291,0.0,0.0,49,0.00,,,0.00,Wunderground v.1.15,2013-10-23 18:52:00,
2013-10-23 13:57:00,42.1,24.3,29.96,WNW,282,0.0,0.0,49,0.00,,,0.00,Wunderground v.1.15,2013-10-23 18:57:00,
2013-10-23 14:03:00,42.1,24.3,29.96,WNW,285,0.0,0.0,49,0.00,,,0.00,Wunderground v.1.15,2013-10-23 19:03:00,
2013-10-23 14:08:00,42.1,24.3,29.96,WSW,251,0.0,0.0,49,0.00,,,0.00,Wunderground v.1.15,2013-10-23 19:08:00,
2013-10-23 14:14:00,41.8,24.0,29.97,SSW,208,0.0,0.0,49,0.00,,,0.00,Wunderground v.1.15,2013-10-23 19:14:00,
2013-10-23 14:19:00,41.5,23.7,29.97,WSW,250,0.0,0.0,49,0.00,,,0.00,Wunderground v.1.15,2013-10-23 19:19:00,
2013-10-23 14:24:00,41.5,23.7,29.97,WNW,289,0.0,0.0,49,0.00,,,0.00,Wunderground v.1.15,2013-10-23 19:24:00,
2013-10-23 14:29:00,41.2,25.8,29.97,SW,223,0.0,0.0,54,0.00,,,0.00,Wunderground v.1.15,2013-10-23 19:29:00,
2013-10-23 14:35:00,41.1,26.6,29.97,SW,226,0.0,0.0,56,0.00,,,0.00,Wunderground v.1.15,2013-10-23 19:35:00,
2013-10-23 14:40:00,41.2,26.7,29.97,SW,236,0.0,0.0,56,0.00,,,0.00,Wunderground v.1.15,2013-10-23 19:40:00,
2013-10-23 14:45:00,41.5,27.0,29.97,NNW,330,0.0,3.0,56,0.00,,,0.00,Wunderground v.1.15,2013-10-23 19:45:00,
2013-10-23 14:51:00,41.3,26.8,29.97,WSW,244,0.0,0.0,56,0.00,,,0.00,Wunderground v.1.15,2013-10-23 19:51:00,
2013-10-23 14:56:00,41.3,26.8,29.97,NW,323,0.0,0.0,56,0.00,,,0.00,Wunderground v.1.15,2013-10-23 19:56:00,
2013-10-23 15:01:00,41.2,26.2,29.97,SW,232,0.0,5.0,55,0.00,,,0.00,Wunderground v.1.15,2013-10-23 20:01:00,
2013-10-23 15:07:00,41.1,28.3,29.97,West,280,1.0,5.0,60,0.00,,,0.00,Wunderground v.1.15,2013-10-23 20:07:00,
2013-10-23 15:13:00,40.6,29.0,29.98,West,280,0.0,0.0,63,0.00,,,0.00,Wunderground v.1.15,2013-10-23 20:13:00,
2013-10-23 15:19:00,40.2,28.6,29.98,WNW,289,0.0,0.0,63,0.00,,,0.00,Wunderground v.1.15,2013-10-23 20:19:00,
2013-10-23 15:25:00,39.8,29.0,29.98,West,265,0.0,0.0,65,0.00,,,0.00,Wunderground v.1.15,2013-10-23 20:25:00,
2013-10-23 15:30:00,39.6,29.2,29.98,West,264,0.0,0.0,66,0.00,,,0.00,Wunderground v.1.15,2013-10-23 20:30:00,
2013-10-23 15:36:00,39.3,29.3,29.98,West,264,0.0,0.0,67,0.00,,,0.00,Wunderground v.1.15,2013-10-23 20:36:00,
2013-10-23 15:41:00,39.3,29.6,29.98,West,264,0.0,0.0,68,0.00,,,0.00,Wunderground v.1.15,2013-10-23 20:41:00,
2013-10-23 15:46:00,39.2,30.2,29.98,West,265,0.0,0.0,70,0.00,,,0.00,Wunderground v.1.15,2013-10-23 20:46:00,
2013-10-23 15:52:00,39.2,29.9,29.98,WSW,248,0.0,2.0,69,0.00,,,0.00,Wunderground v.1.15,2013-10-23 20:52:00,
2013-10-23 15:57:00,39.1,29.4,29.99,WNW,284,1.0,11.0,68,0.00,,,0.00,Wunderground v.1.15,2013-10-23 20:57:00,
2013-10-23 16:02:00,38.9,29.2,29.99,West,281,0.0,1.0,68,0.00,,,0.00,Wunderground v.1.15,2013-10-23 21:02:00,
2013-10-23 16:07:00,38.8,28.8,29.99,West,271,0.0,1.0,67,0.00,,,0.00,Wunderground v.1.15,2013-10-23 21:07:00,
2013-10-23 16:13:00,38.8,29.1,29.99,WNW,289,0.0,0.0,68,0.00,,,0.00,Wunderground v.1.15,2013-10-23 21:13:00,
2013-10-23 16:18:00,38.6,28.6,29.99,WNW,289,0.0,0.0,67,0.00,,,0.00,Wunderground v.1.15,2013-10-23 21:18:00,
2013-10-23 16:24:00,38.8,29.1,29.99,West,264,0.0,0.0,68,0.00,,,0.01,Wunderground v.1.15,2013-10-23 21:24:00,
2013-10-23 16:30:00,38.8,28.8,29.99,SW,232,0.0,0.0,67,0.00,,,0.01,Wunderground v.1.15,2013-10-23 21:30:00,
2013-10-23 16:35:00,38.9,28.5,29.99,West,270,0.0,0.0,66,0.00,,,0.01,Wunderground v.1.15,2013-10-23 21:35:00,
2013-10-23 16:40:00,38.9,27.8,29.99,WNW,291,0.0,0.0,64,0.00,,,0.01,Wunderground v.1.15,2013-10-23 21:40:00,
2013-10-23 16:45:00,38.9,27.0,29.99,WSW,251,0.0,0.0,62,0.00,,,0.01,Wunderground v.1.15,2013-10-23 21:45:00,
2013-10-23 16:51:00,38.9,27.0,29.99,WSW,257,0.0,0.0,62,0.00,,,0.01,Wunderground v.1.15,2013-10-23 21:51:00,
2013-10-23 16:57:00,38.9,27.0,29.99,WSW,247,0.0,1.0,62,0.00,,,0.01,Wunderground v.1.15,2013-10-23 21:57:00,
2013-10-23 17:02:00,39.1,27.2,29.99,WSW,250,0.0,0.0,62,0.00,,,0.01,Wunderground v.1.15,2013-10-23 22:02:00,
2013-10-23 17:07:00,39.1,27.2,29.99,WSW,253,0.0,0.0,62,0.00,,,0.01,Wunderground v.1.15,2013-10-23 22:07:00,
2013-10-23 17:13:00,38.9,27.0,29.99,WSW,253,0.0,0.0,62,0.00,,,0.01,Wunderground v.1.15,2013-10-23 22:13:00,
2013-10-23 17:18:00,38.9,27.4,29.99,SW,227,0.0,0.0,63,0.00,,,0.01,Wunderground v.1.15,2013-10-23 22:18:00,
2013-10-23 17:24:00,38.9,27.4,29.99,West,261,0.0,0.0,63,0.00,,,0.01,Wunderground v.1.15,2013-10-23 22:24:00,
2013-10-23 17:29:00,38.8,27.3,29.99,West,278,0.0,6.0,63,0.00,,,0.01,Wunderground v.1.15,2013-10-23 22:29:00,
2013-10-23 17:34:00,38.8,27.7,29.99,WNW,287,1.0,1.0,64,0.00,,,0.01,Wunderground v.1.15,2013-10-23 22:34:00,
2013-10-23 17:39:00,38.6,27.8,29.99,WNW,287,0.0,1.0,65,0.00,,,0.01,Wunderground v.1.15,2013-10-23 22:39:00,
2013-10-23 17:45:00,38.5,27.7,30.00,WNW,288,0.0,0.0,65,0.00,,,0.01,Wunderground v.1.15,2013-10-23 22:45:00,
2013-10-23 17:50:00,38.5,27.7,30.00,WNW,288,0.0,0.0,65,0.00,,,0.01,Wunderground v.1.15,2013-10-23 22:50:00,
2013-10-23 17:55:00,38.3,27.6,30.00,WNW,288,0.0,0.0,65,0.00,,,0.01,Wunderground v.1.15,2013-10-23 22:55:00,
2013-10-23 18:01:00,38.2,27.8,30.00,WNW,288,0.0,0.0,66,0.00,,,0.01,Wunderground v.1.15,2013-10-23 23:01:00,
2013-10-23 18:07:00,38.0,27.6,30.00,WNW,288,0.0,0.0,66,0.00,,,0.01,Wunderground v.1.15,2013-10-23 23:07:00,
2013-10-23 18:12:00,37.9,27.9,30.00,WNW,288,0.0,0.0,67,0.00,,,0.01,Wunderground v.1.15,2013-10-23 23:12:00,
2013-10-23 18:18:00,37.9,27.9,30.00,WNW,288,0.0,0.0,67,0.00,,,0.01,Wunderground v.1.15,2013-10-23 23:18:00,
2013-10-23 18:24:00,37.8,27.8,30.00,WNW,288,0.0,0.0,67,0.00,,,0.01,Wunderground v.1.15,2013-10-23 23:24:00,
2013-10-23 18:29:00,37.6,28.0,30.00,WNW,288,0.0,0.0,68,0.00,,,0.01,Wunderground v.1.15,2013-10-23 23:29:00,
2013-10-23 18:34:00,37.5,27.9,30.00,WNW,288,0.0,0.0,68,0.00,,,0.01,Wunderground v.1.15,2013-10-23 23:34:00,
2013-10-23 18:40:00,37.3,28.1,30.00,WNW,288,0.0,0.0,69,0.00,,,0.01,Wunderground v.1.15,2013-10-23 23:40:00,
2013-10-23 18:45:00,37.2,28.0,30.00,WNW,288,0.0,0.0,69,0.00,,,0.01,Wunderground v.1.15,2013-10-23 23:45:00,
2013-10-23 18:51:00,37.0,27.8,30.00,WNW,288,0.0,0.0,69,0.00,,,0.01,Wunderground v.1.15,2013-10-23 23:51:00,
2013-10-23 18:56:00,36.9,27.7,30.00,WNW,288,0.0,0.0,69,0.00,,,0.01,Wunderground v.1.15,2013-10-23 23:56:00,
2013-10-23 19:01:00,36.8,27.9,30.00,WNW,288,0.0,0.0,70,0.00,,,0.01,Wunderground v.1.15,2013-10-24 00:01:00,
2013-10-23 19:07:00,36.6,27.7,30.00,WNW,288,0.0,0.0,70,0.00,,,0.01,Wunderground v.1.15,2013-10-24 00:07:00,
2013-10-23 19:13:00,36.5,27.6,30.01,WNW,288,0.0,0.0,70,0.00,,,0.01,Wunderground v.1.15,2013-10-24 00:13:00,
2013-10-23 19:18:00,36.5,28.0,30.01,WNW,288,0.0,0.0,71,0.00,,,0.01,Wunderground v.1.15,2013-10-24 00:18:00,
2013-10-23 19:23:00,36.3,27.8,30.01,WNW,288,0.0,0.0,71,0.00,,,0.01,Wunderground v.1.15,2013-10-24 00:23:00,
2013-10-23 19:28:00,36.2,27.7,30.01,WNW,288,0.0,0.0,71,0.00,,,0.01,Wunderground v.1.15,2013-10-24 00:28:00,
2013-10-23 19:34:00,36.2,27.7,30.01,WNW,288,0.0,0.0,71,0.00,,,0.01,Wunderground v.1.15,2013-10-24 00:34:00,
2013-10-23 19:39:00,36.2,27.7,30.01,WNW,288,0.0,0.0,71,0.00,,,0.01,Wunderground v.1.15,2013-10-24 00:39:00,
2013-10-23 19:45:00,36.0,27.5,30.01,WNW,288,0.0,0.0,71,0.00,,,0.01,Wunderground v.1.15,2013-10-24 00:45:00,
2013-10-23 19:51:00,36.0,27.8,30.01,WNW,288,0.0,0.0,72,0.00,,,0.01,Wunderground v.1.15,2013-10-24 00:51:00,
2013-10-23 19:57:00,35.9,27.7,30.01,WNW,288,0.0,0.0,72,0.00,,,0.01,Wunderground v.1.15,2013-10-24 00:57:00,
2013-10-23 20:02:00,35.9,27.7,30.01,WNW,288,0.0,0.0,72,0.00,,,0.01,Wunderground v.1.15,2013-10-24 01:02:00,
2013-10-23 20:08:00,35.8,27.7,30.01,WNW,288,0.0,0.0,72,0.00,,,0.01,Wunderground v.1.15,2013-10-24 01:08:00,
2013-10-23 20:13:00,35.8,27.7,30.01,WNW,288,0.0,0.0,72,0.00,,,0.01,Wunderground v.1.15,2013-10-24 01:13:00,
2013-10-23 20:18:00,35.8,27.7,30.01,WNW,288,0.0,0.0,72,0.00,,,0.01,Wunderground v.1.15,2013-10-24 01:18:00,
2013-10-23 20:24:00,35.6,27.5,30.01,WNW,288,0.0,0.0,72,0.00,,,0.01,Wunderground v.1.15,2013-10-24 01:24:00,
2013-10-23 20:29:00,35.6,27.5,30.01,WNW,288,0.0,0.0,72,0.00,,,0.01,Wunderground v.1.15,2013-10-24 01:29:00,
2013-10-23 20:34:00,35.6,27.5,30.01,WNW,288,0.0,0.0,72,0.00,,,0.01,Wunderground v.1.15,2013-10-24 01:34:00,
2013-10-23 20:40:00,35.5,27.4,30.01,WNW,288,0.0,0.0,72,0.00,,,0.01,Wunderground v.1.15,2013-10-24 01:40:00,
2013-10-23 20:46:00,35.5,27.4,30.01,WNW,288,0.0,0.0,72,0.00,,,0.01,Wunderground v.1.15,2013-10-24 01:46:00,
2013-10-23 20:52:00,35.3,27.2,30.01,WNW,288,0.0,0.0,72,0.00,,,0.01,Wunderground v.1.15,2013-10-24 01:52:00,
2013-10-23 20:57:00,35.3,27.2,30.01,WNW,288,0.0,0.0,72,0.00,,,0.01,Wunderground v.1.15,2013-10-24 01:57:00,
2013-10-23 21:02:00,35.2,27.4,30.01,WNW,288,0.0,0.0,73,0.00,,,0.01,Wunderground v.1.15,2013-10-24 02:02:00,
2013-10-23 21:07:00,35.2,27.4,30.01,WNW,288,0.0,0.0,73,0.00,,,0.01,Wunderground v.1.15,2013-10-24 02:07:00,
2013-10-23 21:13:00,35.2,27.4,30.01,WNW,288,0.0,0.0,73,0.00,,,0.01,Wunderground v.1.15,2013-10-24 02:13:00,
2013-10-23 21:19:00,35.0,27.2,30.01,WNW,288,0.0,0.0,73,0.00,,,0.01,Wunderground v.1.15,2013-10-24 02:19:00,
2013-10-23 21:24:00,35.0,27.2,30.01,WNW,288,0.0,0.0,73,0.00,,,0.01,Wunderground v.1.15,2013-10-24 02:24:00,
2013-10-23 21:29:00,35.0,27.5,30.01,WNW,288,0.0,0.0,74,0.00,,,0.01,Wunderground v.1.15,2013-10-24 02:29:00,
2013-10-23 21:35:00,34.9,27.5,30.01,WNW,288,0.0,0.0,74,0.00,,,0.01,Wunderground v.1.15,2013-10-24 02:35:00,
2013-10-23 21:40:00,34.9,27.5,30.01,WNW,288,0.0,0.0,74,0.00,,,0.01,Wunderground v.1.15,2013-10-24 02:40:00,
2013-10-23 21:45:00,34.9,27.5,30.01,WNW,288,0.0,0.0,74,0.00,,,0.01,Wunderground v.1.15,2013-10-24 02:45:00,
2013-10-23 21:50:00,34.9,27.5,30.01,WNW,288,0.0,0.0,74,0.00,,,0.01,Wunderground v.1.15,2013-10-24 02:50:00,
2013-10-23 21:55:00,34.7,27.3,30.01,WNW,288,0.0,0.0,74,0.00,,,0.01,Wunderground v.1.15,2013-10-24 02:55:00,
2013-10-23 22:00:00,34.7,26.9,30.01,WNW,288,0.0,0.0,73,0.00,,,0.01,Wunderground v.1.15,2013-10-24 03:00:00,
2013-10-23 22:06:00,34.7,26.9,30.01,WNW,296,0.0,0.0,73,0.00,,,0.01,Wunderground v.1.15,2013-10-24 03:06:00,
2013-10-23 22:11:00,34.6,26.5,30.01,West,268,0.0,0.0,72,0.00,,,0.01,Wunderground v.1.15,2013-10-24 03:11:00,
2013-10-23 22:17:00,34.7,26.6,30.01,West,281,0.0,0.0,72,0.00,,,0.01,Wunderground v.1.15,2013-10-24 03:17:00,
2013-10-23 22:23:00,34.7,26.6,30.01,West,281,0.0,0.0,72,0.00,,,0.01,Wunderground v.1.15,2013-10-24 03:23:00,
2013-10-23 22:28:00,34.7,26.6,30.01,West,281,0.0,0.0,72,0.00,,,0.01,Wunderground v.1.15,2013-10-24 03:28:00,
2013-10-23 22:33:00,34.7,26.6,30.01,West,281,0.0,0.0,72,0.00,,,0.01,Wunderground v.1.15,2013-10-24 03:33:00,
2013-10-23 22:38:00,34.7,26.6,30.01,West,281,0.0,0.0,72,0.00,,,0.01,Wunderground v.1.15,2013-10-24 03:38:00,
2013-10-23 22:43:00,34.9,26.8,30.01,West,281,0.0,0.0,72,0.00,,,0.01,Wunderground v.1.15,2013-10-24 03:43:00,
2013-10-23 22:48:00,34.9,26.8,30.01,West,281,0.0,0.0,72,0.00,,,0.01,Wunderground v.1.15,2013-10-24 03:48:00,
2013-10-23 22:54:00,34.9,27.1,30.01,West,281,0.0,0.0,73,0.00,,,0.01,Wunderground v.1.15,2013-10-24 03:54:00,
2013-10-23 22:59:00,34.9,27.1,30.01,West,281,0.0,0.0,73,0.00,,,0.01,Wunderground v.1.15,2013-10-24 03:59:00,
2013-10-23 23:01:00,34.9,27.1,30.01,West,281,0.0,0.0,73,0.00,,,0.01,Wunderground v.1.15,2013-10-24 04:01:00,
2013-10-23 23:02:00,34.9,26.8,30.01,West,281,0.0,0.0,72,0.00,,,0.01,Wunderground v.1.15,2013-10-24 04:02:00,
2013-10-23 23:03:00,34.9,26.8,30.01,West,281,0.0,0.0,72,0.00,,,0.01,Wunderground v.1.15,2013-10-24 04:03:00,
2013-10-23 23:06:00,34.9,26.8,30.01,West,281,0.0,0.0,72,0.00,,,0.01,Wunderground v.1.15,2013-10-24 04:06:00,
2013-10-23 23:09:00,34.9,26.8,30.01,West,281,0.0,0.0,72,0.00,,,0.01,Wunderground v.1.15,2013-10-24 04:09:00,
2013-10-23 23:10:00,34.9,26.8,30.01,West,281,0.0,0.0,72,0.00,,,0.01,Wunderground v.1.15,2013-10-24 04:10:00,
2013-10-23 23:15:00,34.7,26.6,30.01,West,281,0.0,0.0,72,0.00,,,0.01,Wunderground v.1.15,2013-10-24 04:15:00,
2013-10-23 23:21:00,34.7,26.6,30.01,West,281,0.0,0.0,72,0.00,,,0.01,Wunderground v.1.15,2013-10-24 04:21:00,
2013-10-23 23:27:00,34.7,26.6,30.01,West,281,0.0,0.0,72,0.00,,,0.01,Wunderground v.1.15,2013-10-24 04:27:00,
2013-10-23 23:32:00,34.7,26.6,30.01,West,281,0.0,0.0,72,0.00,,,0.01,Wunderground v.1.15,2013-10-24 04:32:00,
2013-10-23 23:37:00,34.7,26.6,30.01,West,281,0.0,0.0,72,0.00,,,0.01,Wunderground v.1.15,2013-10-24 04:37:00,
2013-10-23 23:42:00,34.7,26.6,30.01,West,281,0.0,0.0,72,0.00,,,0.01,Wunderground v.1.15,2013-10-24 04:42:00,
2013-10-23 23:47:00,34.7,26.6,30.01,West,281,0.0,0.0,72,0.00,,,0.01,Wunderground v.1.15,2013-10-24 04:47:00,
2013-10-23 23:52:00,34.7,26.6,30.01,West,281,0.0,0.0,72,0.00,,,0.01,Wunderground v.1.15,2013-10-24 04:52:00,
2013-10-23 23:57:00,34.7,26.9,30.02,West,281,0.0,0.0,73,0.00,,,0.01,Wunderground v.1.15,2013-10-24 04:57:00,